Regional Weather Roundup
Issued by NWS Little Rock, AR

Home | Current Version | Previous Version | Text Only | Print | Product List | Glossary On
Versions: 1 2 3 4 5 6 7 8 9 10 11 12 13 14 15 16 17 18 19 20 21 22 23 24 25 26 27 28 29 30 31 32 33 34 35 36 37 38 39 40 41 42 43 44 45 46 47 48 49 50
639
ASUS44 KLZK 111505
RWRLZK

WEATHER ROUNDUP FOR ARKANSAS
NATIONAL WEATHER SERVICE LITTLE ROCK AR
900 AM CST THU FEB 11 2016

NOTE: "FAIR" INDICATES FEW OR NO CLOUDS BELOW 12,000 FEET WITH NO
SIGNIFICANT WEATHER AND/OR OBSTRUCTIONS TO VISIBILITY.

ARZ001-003-010-029-111600-
NORTHWEST ARKANSAS

CITY           SKY/WX    TMP DP  RH WIND       PRES   REMARKS
FAYETTEVILLE   CLOUDY    35  25  66 NE7       30.14R WCI  29
FORT SMITH     CLOUDY    40  27  59 NE7       30.12R
HARRISON       CLOUDY    29  18  63 NE6       30.17R WCI  23
BENTONVILLE    SUNNY    N/A N/A N/A NE8       30.15R
ROGERS         SUNNY     33  21  61 E9        30.15R WCI  25
SILOAM SPGS    SUNNY     36  19  51 N10       30.15R
HIGHFILL       SUNNY     36  25  64 NE9       30.15R
SPRINGDALE     SUNNY     34  23  64 NE12      30.15R WCI  25
$$

ARZ004-005-016-111600-
NORTH CENTRAL ARKANSAS

CITY           SKY/WX    TMP DP  RH WIND       PRES   REMARKS
BATESVILLE     MOSUNNY   30  16  55 N8        30.22R WCI  23
FLIPPIN        CLOUDY    30  12  47 NE7       30.20R WCI  23
MTN HOME       SUNNY     28  14  55 NE9       30.20R WCI  19
$$

ARZ040-041-111600-
WEST CENTRAL ARKANSAS

CITY           SKY/WX    TMP DP  RH WIND       PRES   REMARKS
MENA           SUNNY     52  37  58 CALM      30.08R
MOUNT IDA      SUNNY     46  34  62 SE3       30.06R
$$

ARZ009-017-025-026-028-111600-
NORTHEAST ARKANSAS

CITY           SKY/WX    TMP DP  RH WIND       PRES   REMARKS
CORNING        FAIR      32  19  59 NE12G18   30.25R WCI  23
JONESBORO      MOSUNNY   29  21  72 NE16G24   30.21R WCI  17
NEWPORT        MOSUNNY   30  21  69 N22       30.22R WCI  17
WALNUT RIDGE   CLOUDY    30  18  59 NE16      30.23R WCI  19
BLYTHEVILLE    CLOUDY    36  18  48 E16       30.22R
NW BLYTHEVILLE MOSUNNY   32  21  64 NE14G22   30.21R WCI  22
$$

ARZ022-023-033-042-044-111600-
CENTRAL ARKANSAS

CITY           SKY/WX    TMP DP  RH WIND       PRES   REMARKS
LITTLE ROCK    MOSUNNY   37  24  59 N9        30.16R
N LITTLE ROCK  MOSUNNY   35  24  64 N9G17     30.16R WCI  28
JACKSONVILLE   MOSUNNY   35  20  55 NE12      30.15R WCI  27
SEARCY         MOSUNNY   34  19  55 NE15      30.20R WCI  24
HOT SPRINGS    SUNNY     44  29  55 E8        30.11R
RUSSELLVILLE   CLOUDY    36  27  69 CALM      30.13R
CLINTON        FAIR      32  18  55 CALM      30.20R
$$

ARZ036-111600-
EAST ARKANSAS

CITY           SKY/WX    TMP DP  RH WIND       PRES   REMARKS
WEST MEMPHIS   MOSUNNY   34  19  54 E14       30.16R WCI  25
$$

ARZ050-053-066-070-073-111600-
SOUTHWEST ARKANSAS

CITY           SKY/WX    TMP DP  RH WIND       PRES   REMARKS
ARKADELPHIA    FAIR      41  34  76 NE8       30.11R
CAMDEN         SUNNY     48  36  61 CALM      30.09R
TEXARKANA      SUNNY     58  36  43 W7        30.08R
EL DORADO      SUNNY     57  39  51 SW8       30.09R
DE QUEEN       MOSUNNY   42  37  82 CALM      30.07R
$$

ARZ056-057-069-111600-
SOUTHEAST ARKANSAS

CITY           SKY/WX    TMP DP  RH WIND       PRES   REMARKS
PINE BLUFF     SUNNY     39  33  79 N9        30.12R
STUTTGART      MOSUNNY   36  27  69 N18       30.14R
MONTICELLO     SUNNY     55  39  54 W6        30.08R

$$






USA.gov is the U.S. government's official web portal to all federal, state and local government web resources and services.